SCOUT X-4 R/B, 933

Orbit data source: Space-Track

SCOUT X-4 R/B, 933 is space debris in LEO originally from a launch on Sat, 21 Nov 1964 UTC launched from the Air Force Western Test Range (AFWTR). Debris objects in space refer to the collection of defunct objects orbiting the Earth. Examples of debris include non-operational satellites, rocket bodies, and fragments generated from explosions, collisions, or faulty payload assembly.

Loading next visibility...
Identifier
933, 1964-076C
Orbit
LEO
Country
Flag of USUS
Related business
Manufacturer
ABL
Mission
Spacecraft
Bus & Motor
ALTAIR, Unknown motor
Mass
33 kg wet, 33 kg dry
Launch date (UTC)
1964-11-21 (61 years ago)
Launch vehicle
Unknown
Launch site
Air Force Western Test Range (AFWTR)
Object type
Payload
Rocket body
Debris
Shape & HBR
Cyl, 0.8 m
Radar Cross Section
0.687 m², Medium (>0.1 m² and < 1m²)

Expand to show TLE details & history
Last TLE update: 22 hours ago

TLE from 22 hours ago
0 SCOUT X-4 R/B
1 00933U 64076C   25257.29124231  .00000712  00000-0  24109-3 0  9992
2 00933  81.3421   7.8228 1051760 276.4600  71.7997 12.81756017801229
Epoch: 2025-09-14T06:59Z
TLE epoch observation values (Epoch: 2025-09-14T06:59:23.335Z)
Latitude
-0.00005°
Longitude
-90.53679°
Altitude
1,164.176 km
Speed
7.352 km/s
True Right ascension
00h 31m 17s
True Declination
0° 00' 00"
Sunlit
Object was in full shadow at epoch
Visualization orbit readout
Latitude
Unknown
Longitude
Unknown
Altitude
Unknown
Speed
Unknown
Apparent Right ascension
Unknown
Apparent Declination
Unknown
Sunlit
N/A
Visualization observer readout
Local Sidereal Time
21:12:23
Azimuth
Unknown
Elevation
Unknown
Doppler factor
Unknown
Orbital elements
Apogee altitude
2,142.609 km
Perigee altitude
520.826 km
Semi-major axis
7,709.854 km
Eccentricity
0.10518
Inclination
81.3421°
RAAN
7.8228°
Arg. of periapsis
276.46°
True anomaly
83.65288°
Mean anomaly
71.7997°
Eccentric anomaly
77.68723°
Mean motion
3.20608 °/min
Orbital period
112.29 mins
BSTAR
0.00024109
Loading maneuver chart data...
Computing Atmospheric mass density...
Loading historical data...
Loading historical data...
Loading historical data...
Loading historical data...
Loading historical data...
Loading historical data...
Loading historical data...

Documentation

Showing up to 5 results
|